Flag for Portugal Weather past 2 weeks in Faro, Portugal

Now
77 °F

Passing clouds.


Feels Like: 78 °F
Forecast: 65 / 78 °F
Wind: 7 mph from Northeast

Location: Faro / Aeroporto

Current Time: Oct 23, 2014 at 8:23:18 PM

Latest Report: Oct 23, 2014 at 8:00 PM


Visibility: N/A

Pressure: 30.04 "Hg

Humidity: 32%

Dew point: 45 °F

Location of FaroLocation

Historic Weather in Faro — Graph

°F

Faro temperature yesterday

Maximum temperature yesterday: 95 °F (at 3:30 PM)
Minimum temperature yesterday: 72 °F (at 8:30 AM)
Average temperature yesterday: 82 °F

Past Weeks' High & Low Weather Summary

 TemperatureHumidityPressure
High95 °F (Oct 22, 3:30 PM)100% (Oct 8, 11:30 PM)30.24 "Hg (Oct 8, 11:30 PM)
Low57 °F (Oct 14, 6:00 AM)18% (Oct 22, 3:30 PM)29.71 "Hg (Oct 11, 3:30 PM)
Average70 °F77%29.98 "Hg
* Reported Oct 8 6:00 PM — Oct 23 6:30 PM, Faro, Weather by CustomWeather, © 2014

Note: Actual official high and low records may vary slightly from our data, if they occured in-between our weather recording intervals... More about our weather records

Advertising

Faro weather history for previous 24 hours

 ConditionsComfort  
Time TempWeatherWind HumidityBarometerVisibility
6:30 PM
Oct 23
77 °FSunny.6 mph39%30.04 "Hg10 mi
6:00 PM79 °FSunny.7 mph37%30.04 "Hg10 mi
5:30 PM79 °FSunny.8 mph37%30.04 "Hg10 mi
5:00 PM79 °FSunny.8 mph39%30.04 "Hg10 mi
4:30 PM81 °FSunny.12 mph32%30.07 "Hg10 mi
4:00 PM81 °FSunny.12 mph32%30.07 "Hg10 mi
3:30 PM81 °FSunny.14 mph32%30.07 "Hg10 mi
3:00 PM82 °FSunny.14 mph30%30.07 "Hg10 mi
2:30 PM82 °FSunny.15 mph28%30.09 "Hg10 mi
2:00 PM82 °FSunny.15 mph26%30.09 "Hg10 mi
1:30 PM82 °FSunny.15 mph21%30.09 "Hg10 mi
1:00 PM82 °FSunny.16 mph20%30.12 "Hg10 mi
12:30 PM81 °FSunny.16 mph24%30.12 "Hg10 mi
12:00 PM81 °FSunny.15 mph23%30.12 "Hg10 mi
11:30 AM79 °FSunny.14 mph24%30.12 "Hg10 mi
11:00 AM79 °FSunny.14 mph21%30.15 "Hg10 mi
10:30 AM77 °FSunny.14 mph24%30.15 "Hg10 mi
10:00 AM75 °FSunny.12 mph27%30.15 "Hg10 mi
9:30 AM75 °FSunny.9 mph27%30.15 "Hg10 mi
9:00 AM75 °FSunny.10 mph27%30.12 "Hg10 mi
8:30 AM73 °FClear.10 mph27%30.12 "Hg10 mi
8:00 AM73 °FClear.13 mph27%30.12 "Hg10 mi
7:30 AM75 °FClear.15 mph25%30.12 "Hg10 mi
7:00 AM75 °FClear.16 mph25%30.09 "Hg10 mi
6:30 AM73 °FClear.14 mph29%30.09 "Hg10 mi
6:00 AM75 °FClear.10 mph29%30.09 "Hg10 mi
5:30 AM75 °FClear.10 mph31%30.09 "Hg10 mi
5:00 AM73 °FClear.13 mph38%30.09 "Hg10 mi
4:30 AM73 °FClear.13 mph44%30.09 "Hg10 mi
4:00 AM75 °FClear.9 mph41%30.12 "Hg10 mi
3:30 AM75 °FClear.8 mph44%30.12 "Hg10 mi
3:00 AM75 °FClear.7 mph44%30.12 "Hg10 mi
2:30 AM75 °FClear.8 mph41%30.12 "Hg10 mi
2:00 AM77 °FClear.9 mph36%30.12 "Hg10 mi
1:30 AM77 °FClear.7 mph36%30.12 "Hg10 mi
1:00 AM77 °FClear.8 mph39%30.15 "Hg10 mi
12:30 AM75 °FClear.5 mph47%30.15 "Hg10 mi
12:00 AM77 °FClear.5 mph44%30.15 "Hg10 mi
11:30 PM
Oct 22
79 °FClear.9 mph42%30.15 "Hg10 mi
11:00 PM79 °FClear.6 mph42%30.15 "Hg10 mi
10:30 PM79 °FClear.5 mph42%30.15 "Hg10 mi
10:00 PM81 °FClear.7 mph39%30.15 "Hg10 mi
9:30 PM82 °FClear.8 mph35%30.15 "Hg10 mi
9:00 PM82 °FClear.8 mph35%30.15 "Hg10 mi
8:30 PM84 °FClear.9 mph31%30.15 "Hg10 mi
8:00 PM84 °FPassing clouds.9 mph29%30.15 "HgN/A
Weather by CustomWeather, © 2014

See weather overviewHow to use our weather pages